This demonstration page uses our WeatherBlox Daily Observations layout. Learn more.

Left ArrowRight Arrow

41.86663, -103.66717

Hourly Observations for July 15, 2020

Temp ( °F °C ) Dew Point ( °F °C ) Humidity (%) Winds ( mph kmh ) Pressure ( in mb ) Visibility ( mi km ) Precip ( " mm )
12:53 am 00:53 Mostly Cloudy 67 19.4 58 14.4 73 73 ESE 10 17 29.94 1014 10 16 N/A
1:53 am 01:53 Mostly Cloudy 65 18.3 58 14.4 78 78 ESE 9 15 29.94 1014 10 16 N/A
2:17 am 02:17 Cloudy 65 18.3 57 13.9 76 76 ESE 13 20 29.90 1012 10 16 N/A
2:53 am 02:53 Cloudy 65 18.3 57 13.9 76 76 E 13 20 29.92 1013 10 16 N/A
3:53 am 03:53 Cloudy 65 18.3 58 14.4 78 78 E 10 17 29.92 1013 10 16 N/A
4:53 am 04:53 Cloudy 65 18.3 57 13.9 76 76 ESE 12 19 29.96 1015 10 16 N/A
5:53 am 05:53 Cloudy with Heavy Rain 58 14.4 58 14.4 100 100 NE 23 37 30.05 1018 3 4 0.08 2.03
6:06 am 06:06 Cloudy with Light Rain 56 13.3 55 12.8 97 97 NE 22 35 30.08 1019 5 8 0.04 1.02
6:28 am 06:28 Cloudy with Light Rain 57 13.9 55 12.8 93 93 ENE 15 24 30.08 1019 10 16 0.05 1.27
6:53 am 06:53 Cloudy 57 13.9 56 13.3 96 96 ENE 17 28 30.07 1018 10 16 0.05 1.27
7:53 am 07:53 Cloudy 61 16.1 51 10.6 70 70 E 13 20 30.06 1018 10 16 N/A
8:53 am 08:53 Cloudy 64 17.8 53 11.7 68 68 SSE 9 15 30.09 1019 10 16 N/A
9:53 am 09:53 Cloudy 68 20 50 10 53 53 SSE 17 28 30.08 1019 10 16 N/A
10:53 am 10:53 Sunny 72 22.2 51 10.6 48 48 SSE 15 24 30.07 1018 10 16 N/A
11:53 am 11:53 Sunny 75 23.9 52 11.1 45 45 SSE 10 17 30.05 1018 10 16 N/A
12:53 pm 12:53 Sunny 77 25 54 12.2 45 45 S 9 15 30.04 1017 10 16 N/A
1:53 pm 13:53 Sunny 79 26.1 54 12.2 42 42 S 10 17 30.01 1016 10 16 N/A
2:53 pm 14:53 Sunny 82 27.8 55 12.8 40 40 SE 14 22 29.97 1015 10 16 N/A
3:53 pm 15:53 Sunny 83 28.3 54 12.2 37 37 SSE 8 13 29.93 1014 10 16 N/A
4:53 pm 16:53 Sunny 83 28.3 53 11.7 36 36 VRB 5 7 29.91 1013 10 16 N/A
5:53 pm 17:53 Sunny 83 28.3 53 11.7 36 36 SSE 14 22 29.91 1013 10 16 N/A
6:53 pm 18:53 Sunny 82 27.8 55 12.8 40 40 S 17 28 29.91 1013 10 16 N/A
7:53 pm 19:53 Sunny 78 25.6 56 13.3 47 47 S 10 17 29.93 1014 10 16 N/A
8:53 pm 20:53 Clear 72 22.2 57 13.9 59 59 ESE 7 11 29.94 1014 10 16 N/A
9:53 pm 21:53 Clear 69 20.6 58 14.4 68 68 ESE 9 15 29.95 1014 10 16 N/A
10:53 pm 22:53 Clear 68 20 58 14.4 70 70 ESE 9 15 29.93 1014 10 16 N/A
11:53 pm 23:53 Clear 65 18.3 58 14.4 78 78 E 6 9 29.91 1013 10 16 N/A

Powered by AerisWeather